Simultaneous Nadir Overpasses (SNOs) Predictions

Prediction of SNOs between LANDSAT-8 and NPP Satellite Orbit:

Table of predicted SNOs for the next 14.0 days since TLE Epoch: 5/28/2022
Index Date (LANDSAT-8) Time (LANDSAT-8) Lat,Lon (LANDSAT-8) SZA (LANDSAT-8 ) Date (NPP) Time (NPP) Lat,Lon (NPP) SZA (NPP ) Distance(km) Time Diff (sec)
1 05/28/2022 06:58:19 -70.17,-108.03 131.39 05/28/2022 06:57:20 -70.15,-108.06 131.40 2.22 59
2 05/28/2022 07:47:47 70.01, 59.40 48.46 05/28/2022 07:48:04 70.03, 59.43 48.48 2.42 17
3 05/28/2022 08:37:27 -69.35,-133.87 132.19 05/28/2022 08:38:35 -69.37,-132.27 132.21 62.87 68
4 05/30/2022 23:14:52 -70.10, 7.76 131.85 05/30/2022 23:14:11 -70.09, 7.83 131.87 3.38 41
5 05/31/2022 00:04:19 70.00, 175.26 48.05 05/31/2022 00:04:56 70.03, 175.22 48.07 2.86 37
6 06/02/2022 14:41:43 70.79, -42.99 48.46 06/02/2022 14:40:34 70.86, -44.94 48.58 71.52 69
7 06/02/2022 15:31:24 -70.08, 123.60 132.24 06/02/2022 15:31:03 -70.08, 123.62 132.24 0.92 21
8 06/02/2022 16:20:51 69.98, -68.91 47.66 06/02/2022 16:21:47 69.97, -68.91 47.65 0.65 56
9 06/05/2022 06:58:25 70.15, 71.93 47.52 06/05/2022 06:57:12 70.17, 71.94 47.56 3.14 73
10 06/05/2022 07:47:55 -70.04,-120.58 132.59 06/05/2022 07:47:53 -70.02,-120.51 132.61 3.42 2
11 06/05/2022 08:37:23 69.88, 46.83 47.25 06/05/2022 08:38:36 69.87, 47.04 47.23 7.98 73
12 06/07/2022 23:14:56 70.14,-172.20 47.25 06/07/2022 23:14:03 70.13,-172.20 47.24 1.64 53
13 06/08/2022 00:04:26 -70.04, -4.71 132.85 06/08/2022 00:04:45 -70.03, -4.73 132.87 1.71 19
14 06/08/2022 00:54:08 69.10, 161.66 46.24 06/08/2022 00:55:14 69.13, 163.89 46.21 88.42 66
15 06/10/2022 15:31:27 70.12, -56.35 47.01 06/10/2022 15:30:55 70.14, -56.43 47.04 3.43 32
16 06/10/2022 16:20:58 -69.97, 111.06 133.14 06/10/2022 16:21:36 -69.98, 111.13 133.13 2.80 38



Historial Predications of SNOs between LANDSAT-8 and NPP
